Regional Weather Roundup
Issued by NWS

Home | Current Version | Previous Version | Text Only | Print | Product List | Glossary On
Versions: 1 2 3 4 5 6 7 8 9 10 11 12 13 14 15 16 17 18 19 20 21 22 23 24 25 26 27 28 29 30 31 32 33 34 35 36 37 38 39 40 41 42 43 44 45 46 47 48 49 50
000
ASUS46 KSTO 231915
RWRCA

NORTHERN AND CENTRAL CA REGIONAL WEATHER ROUNDUP
NATIONAL WEATHER SERVICE SACRAMENTO CA
1200 PM PDT SAT JUL 23 2016

NOTE: FAIR INDICATES FEW OR NO CLOUDS BELOW 12,000 FEET WITH NO
SIGNIFICANT WEATHER AND/OR OBSTRUCTIONS TO VISIBILITY.

CAZ001-003-232000-
NORTHWEST AREA

CITY           SKY/WX    TMP DP  RH WIND       PRES   REMARKS
CRESCENT CITY  FOG       56  53  90 S9        30.13S VSB 3/4
UKIAH          SUNNY     88  51  28 CALM      29.98F
$$

CAZ006-505>513-232000-
BAY AREA

CITY           SKY/WX    TMP DP  RH WIND       PRES   REMARKS
SANTA ROSA     SUNNY     85  52  32 VRB6      29.94F
SAN RAFAEL     N/A       75  MM  MM MISG
NAPA           SUNNY     77  57  50 S8        29.96F
CONCORD        SUNNY     87  51  28 VRB7      29.94F
OAKLAND CITY   N/A       71  MM  MM MISG
OAKLAND        SUNNY     74  55  51 NW7       29.97F
SAN FRAN CITY  N/A       66  MM  58 MISG
SAN FRAN ARPT  MOSUNNY   70  52  52 NW14      29.97F
LIVERMORE      SUNNY     89  45  21 W5        29.94F
HAYWARD        SUNNY     76  50  40 W8        29.97F
REDWOOD CITY   N/A       78  MM  51 MISG
MOFFETT ARPT   SUNNY     80  57  45 N6        29.96F
SAN JOSE ARPT  MOSUNNY   82  52  35 NW9       29.96F
$$
CAZ034-037-514>518-232000-
CENTRAL COAST

CITY           SKY/WX    TMP DP  RH WIND       PRES   REMARKS
WATSONVILLE    SUNNY     74  55  51 S9        29.97F
SALINAS        SUNNY     75  52  44 W13       29.96F
MONTEREY       SUNNY     61  52  72 NW9       30.00R
SAN LUIS OBISP SUNNY     83  52  34 NW17      29.86F
SANTA MARIA    SUNNY     72  54  53 NW13      29.89S
$$
CAZ015-016-232000-
NORTHERN SACRAMENTO VALLEY

CITY           SKY/WX    TMP DP  RH WIND       PRES   REMARKS
REDDING        SUNNY     94  43  17 NW12      29.93F HX  90
RED BLUFF      SUNNY     98  42  14 N13       29.93F HX  94
OROVILLE       SUNNY     88  48  25 CALM      29.94F
$$
CAZ016>018-232000-
SOUTHERN SACRAMENTO VALLEY

CITY           SKY/WX    TMP DP  RH WIND       PRES   REMARKS
AUBURN         SUNNY     90  39  17 CALM      30.01S
BEALE AFB      SUNNY     89  45  21 VRB5      29.90F
LINCOLN        FAIR      88  46  23 W5        29.92F
MARYSVILLE     SUNNY     90  44  20 VRB5      29.92F
SAC INTL ARPT  SUNNY     89  51  27 VRB7      29.91F
MATHER AIRPORT SUNNY     90  45  20 W7        29.92F
DOWNTOWN SAC   N/A       92  MM  MM MISG
SAC EXEC ARPT  SUNNY     89  46  22 CALM      29.92F
VACAVILLE      SUNNY     93  51  23 VRB3      29.94F HX  90
TRAVIS AFB     SUNNY     90  50  25 VRB2      29.91F
$$
CAZ019>021-232000-
SAN JOAQUIN VALLEY

CITY           SKY/WX    TMP DP  RH WIND       PRES   REMARKS
STOCKTON       SUNNY     90  49  24 VRB5      29.92F
MODESTO        SUNNY     91  54  28 NW10      29.92F
MERCED         SUNNY     90  50  25 NW10G20   29.91F
FRESNO         SUNNY     89  45  21 VRB5      29.92F
HANFORD        SUNNY     90  45  21 NW13      29.93F
PORTERVILLE    SUNNY     88  52  29 W10       29.94F
BAKERSFIELD    SUNNY     90  43  19 S5        29.93F
$$
CAZ011-012-071-232000-
NORTHERN MOUNTAINS

CITY           SKY/WX    TMP DP  RH WIND       PRES   REMARKS
YREKA          SUNNY     79  41  25 CALM      30.17F
MOUNT SHASTA   SUNNY     80  48  32 VRB5      30.18F
ALTURAS        SUNNY     80  34  19 VRB5      30.21F
$$
CAZ011-012-071-232000-
SIERRA NEVADA MTNS

CITY           SKY/WX    TMP DP  RH WIND       PRES   REMARKS
BLUE CANYON    SUNNY     78  27  15 MISG      30.24S
TRUCKEE        SUNNY     79  28  15 NE5       30.26F
TAHOE VLY ARPT SUNNY     73  32  22 N8        30.28F
MAMMOTH LAKES    N/A     85  13   7 SE7       30.31F
$$



USA.gov is the U.S. government's official web portal to all federal, state and local government web resources and services.